Regional Weather Roundup
Issued by NWS Sioux Falls, SD

Home | Current Version | Previous Version | Text Only | Print | Product List | Glossary On
Versions: 1 2 3 4 5 6 7 8 9 10 11 12 13 14 15 16 17 18 19 20 21 22 23 24 25 26 27 28 29 30 31 32 33 34 35 36 37 38 39 40 41 42 43 44 45 46 47 48 49 50
000
ASUS43 KFSD 022110
RWRFSD

WEATHER ROUNDUP FOR SE SOUTH DAKOTA/SW MINNESOTA/NW IOWA
NATIONAL WEATHER SERVICE SIOUX FALLS SD
400 PM CDT SUN AUG 02 2015

NOTE: "FAIR" INDICATES FEW OR NO CLOUDS BELOW 12,000 FEET WITH NO
SIGNIFICANT WEATHER AND OR OBSTRUCTIONS TO VISIBILITY.


SDZ038>040-050-052>070-022200-
SOUTHEAST SOUTH DAKOTA

CITY           SKY/WX    TMP DP  RH WIND       PRES   REMARKS
BROOKINGS      SUNNY     81  57  44 N18       29.87R
CHAMBERLAIN    SUNNY     84  60  43 NE7       29.90S
HURON          SUNNY     84  60  44 N10       29.86S
MADISON        FAIR      81  61  50 N12       29.88R
MITCHELL       SUNNY     84  60  44 NE13G22   29.87S
SIOUX FALLS    SUNNY     85  62  46 N10       29.84S
WINNER         FAIR      90  58  33 NE10G18   29.91F
YANKTON        SUNNY     86  66  51 N9        29.83S
$$

MNZ071-072-080-081-089-090-097-098-022200-
SOUTHWEST MINNESOTA

CITY           SKY/WX    TMP DP  RH WIND       PRES   REMARKS
FAIRMONT       SUNNY     84  61  45 NW18      29.77S
JACKSON        SUNNY     84  63  48 N13G21    29.81S
LUVERNE        SUNNY     86  61  42 N8        29.85R
MARSHALL       SUNNY     79  59  50 N14G24    29.84S
MONTEVIDEO     MOSUNNY   82  61  47 N16G23    29.83S
PIPESTONE      SUNNY     82  57  42 N7        29.86R
REDWOOD FALLS  SUNNY     82  59  45 NW18G26   29.79R
TRACY          SUNNY     81  63  54 N14G22    29.83S
WINDOM         SUNNY     82  61  47 NW15      29.81S
WORTHINGTON    SUNNY     82  63  51 N13       29.83S
$$

IAZ001>003-012>014-020>022-031-032-NEZ013-014-SDZ071-022200-
NORTHWEST IOWA

CITY           SKY/WX    TMP DP  RH WIND       PRES   REMARKS
CHEROKEE       SUNNY     85  71  63 NW8       29.82S
DENISON        MOSUNNY   86  75  70 NW8       29.80S HX  95
ESTHERVILLE    SUNNY     85  67  54 N14       29.80R
LE MARS        SUNNY     86  72  62 N6G13     29.83S
ORANGE CITY    SUNNY     84  66  54 NE3       29.83S
SHELDON        SUNNY     84  70  61 NW10G16   29.82S
SIOUX CITY     NOT AVBL
SPENCER        SUNNY     89  65  44 N15       29.81S
STORM LAKE     SUNNY     84  73  70 NW10      29.83R
$$

ABBREVIATIONS USED IN REMARKS
   TC - TEMPERATURE IN CELSIUS
  WCI - WIND CHILL INDEX
   HX - HEAT INDEX
  VSB - VISIBILITY




USA.gov is the U.S. government's official web portal to all federal, state and local government web resources and services.